www.pogodaiklimat.ru

Погода и климат >> Архив погоды >> Германия >> Киль маяк


ПОГОДА в Киль маяке

  • Прогноз погоды в Киль маяке
  • Монитор погоды в Киль маяке

АРХИВ ПОГОДЫ в Киль маяке

Время (UTC), дата Ветер
(напр.,м/с)
 
Видим.   Явления Облачность Т
(С)
Тd
(С)
f
(%)
Тe
(С)
Тes
(С)
Комфортность P
(гПа)
Po
(гПа)
Тmin
(С)
Tmax
(С)
R
(мм)
R24
(мм)
S
(см)
16 17.03 З 17-21
{21}
н/о н/о +6.9 +0.4 63 0 0 995.7 992.6
17 17.03 З 17-20
{21}
н/о н/о +6.5 +0.4 65 -0 -0 996.7 993.5
18 17.03 З 17-21
{23}
н/о н/о +6.1 +0.7 68 -1 -1 997.1 993.9 +5.5 +7.7
19 17.03 ЮЗ 17-21
{21}
н/о н/о +5.8 +1.2 72 -2 -2 997.3 994.1
20 17.03 ЮЗ 18-21
{24}
н/о н/о +5.6 +0.9 72 -2 -2 997.2 994.0
21 17.03 ЮЗ 21-24
{25}
н/о н/о +5.7 +1.1 72 -2 -2 996.9 993.7
22 17.03 З 21-26
{26}
н/о н/о +4.3 +1.9 84 -5 -5 997.1 993.9
23 17.03 ЮЗ 18-21
{24}
н/о н/о +3.8 +1.8 87 -5 -5 997.9 994.7
00 18.03 ЮЗ 18-21
{26}
н/о н/о +5.1 +2.6 84 -3 -3 997.5 994.3
01 18.03 ЮЗ 16-20
{22}
н/о н/о +5.5 +2.6 82 -2 -2 998.0 994.8
02 18.03 ЮЗ 15-17
{21}
н/о н/о +5.1 +2.2 82 -2 -2 998.3 995.1
03 18.03 З 15-20
{23}
н/о н/о +4.7 +1.9 82 -3 -3 998.5 995.3
04 18.03 З 16-18
{24}
н/о н/о +5.1 +1.7 79 -3 -3 998.5 995.3
05 18.03 З 17-20
{20}
н/о н/о +5.1 +1.7 79 -3 -3 998.8 995.6
06 18.03 З 19-24
{24}
н/о н/о +4.4 +1.8 83 -4 -4 999.5 996.3 +3.8 +6.2
07 18.03 З 16-20
{20}
н/о н/о +5.3 +1.9 79 -2 -2 1000.0 996.8
08 18.03 З 16-19
{20}
н/о н/о +5.5 +2.0 78 -2 -2 1001.0 997.8
09 18.03 З 17-21
{21}
н/о н/о +6.0 +1.6 73 -1 -1 1001.8 998.6
10 18.03 З 14-18
{30}
н/о н/о +6.1 +1.6 73 -1 -1 1002.9 999.7
11 18.03 З 16-19
{23}
н/о н/о +6.4 +0.9 68 -1 -1 1003.9 1000.7
12 18.03 З 15-19
{30}
н/о н/о +6.9 +0.7 65 +1 +1 1004.9 1001.7
13 18.03 СЗ 12-14
{24}
н/о н/о +6.3 +2.3 76 0 0 1006.4 1003.2
14 18.03 З 15-18
{21}
н/о н/о +6.6 +0.7 66 0 0 1007.2 1004.0
15 18.03 З 16-17
{24}
н/о н/о +6.0 +1.5 73 -1 -1 1007.8 1004.6
16 18.03 СЗ 14-17
{22}
н/о н/о +6.8 0.0 62 +1 +1 1009.5 1006.3
17 18.03 З 13-15
{19}
н/о н/о +6.2 +0.3 66 -0 -0 1010.6 1007.4
18 18.03 З 14-16
{24}
н/о н/о +5.8 +0.3 68 -1 -1 1011.7 1008.5 +4.4 +7.1
19 18.03 З 12-14
{16}
н/о н/о +5.5 +0.3 69 -1 -1 1013.2 1010.0
20 18.03 З 11-13
{14}
н/о н/о +5.3 +0.4 71 -1 -1 1014.1 1010.9
21 18.03 З 10-12
{16}
н/о н/о +5.2 +0.3 71 -1 -1 1015.0 1011.8
22 18.03 З 9-11
{13}
н/о н/о +5.0 +0.6 73 -1 -1 1016.1 1012.9
23 18.03 З 10-11
{12}
н/о н/о +4.6 +0.7 76 -2 -2 1016.4 1013.2
00 19.03 З 10-12
{16}
н/о н/о +4.4 +0.4 75 -2 -2 1017.2 1014.0
01 19.03 З 9-11
{12}
н/о н/о +4.3 +0.3 75 -2 -2 1017.8 1014.6
02 19.03 З 9-10
{11}
н/о н/о +4.1 0.0 75 -2 -2 1018.3 1015.1
03 19.03 З 10-12
{12}
н/о н/о +4.0 +0.3 77 -3 -3 1018.6 1015.4
04 19.03 З 10-11
{11}
н/о н/о +4.0 +0.5 78 -3 -3 1019.5 1016.2
05 19.03 З 9-11
{12}
н/о н/о +4.0 +0.8 80 -2 -2 1020.1 1016.8
06 19.03 З 9-11
{12}
н/о н/о +3.8 +1.1 83 -3 -3 1021.0 1017.7 +3.8 +5.8
07 19.03 З 9-11
{11}
н/о н/о +4.0 +1.6 84 -3 -3 1021.6 1018.3
08 19.03 СЗ 8-9
{11}
н/о н/о +5.1 +1.9 80 -1 -1 1022.6 1019.4
09 19.03 СЗ 6-7
{11}
н/о н/о +7.3 +2.5 72 +3 +3 1023.6 1020.4
10 19.03 С 6-7
{8}
н/о н/о +5.9 +1.7 74 +1 +1 1024.4 1021.2
11 19.03 С 6-7
{7}
н/о н/о +5.5 +1.3 74 +1 +1 1025.0 1021.7
12 19.03 С 4-5
{11}
н/о н/о +5.4 +1.8 78 +2 +2 1025.6 1022.3
13 19.03 СВ 4-4
{5}
н/о н/о +6.0 +2.0 75 +2 +2 1025.8 1022.6
14 19.03 В 2-3
{4}
н/о н/о +6.5 +2.0 73 +4 +4 1026.2 1023.0
15 19.03 ЮВ 2-3
{5}
н/о н/о +5.7 +0.9 71 +3 +3 1026.5 1023.2
16 19.03 ЮВ 2-2
{3}
н/о н/о +6.3 -1.7 57 +4 +4 1026.6 1023.4
17 19.03 Ю 4-4
{4}
н/о н/о +6.1 -2.3 55 +3 +3 1027.0 1023.7
18 19.03 З 5-6
{6}
н/о н/о +6.6 -0.3 61 +3 +3 1027.5 1024.3 +3.7 +7.3
19 19.03 З 7-8
{9}
н/о н/о +5.7 +0.8 71 +1 +1 1028.2 1024.9
20 19.03 З 7-8
{8}
н/о н/о +5.4 +0.4 70 0 0 1028.7 1025.4
21 19.03 З 6-7
{9}
н/о н/о +4.7 0.0 72 -0 -0 1029.3 1026.0
22 19.03 ЮЗ 6-7
{7}
н/о н/о +4.5 +1.0 78 -1 -1 1029.3 1026.0
23 19.03 ЮЗ 8-8
{8}
н/о н/о +4.2 +0.9 79 -2 -2 1029.4 1026.1
00 20.03 ЮЗ 8-8
{9}
н/о н/о +4.0 +1.3 83 -2 -2 1029.1 1025.8
01 20.03 ЮЗ 10-10
{10}
н/о н/о +4.0 +1.3 83 -3 -3 1028.9 1025.6
02 20.03 ЮЗ 10-11
{11}
н/о н/о +4.0 +0.7 79 -3 -3 1028.6 1025.3
03 20.03 ЮЗ 10-11
{11}
н/о н/о +4.2 +1.1 80 -2 -2 1028.0 1024.7
04 20.03 ЮЗ 10-12
{12}
н/о н/о +4.3 +0.7 77 -2 -2 1027.8 1024.5
05 20.03 ЮЗ 9-10
{12}
н/о н/о +4.4 +1.4 81 -2 -2 1027.6 1024.3
06 20.03 ЮЗ 12-13
{13}
н/о н/о +4.8 +1.3 78 -2 -2 1027.5 1024.2 +3.8 +6.6
07 20.03 ЮЗ 12-14
{14}
н/о н/о +5.5 +2.4 80 -1 -1 1027.6 1024.3
08 20.03 -12
{13}
н/о
09 20.03 ЮЗ 11-13
{14}
н/о н/о +7.1 +4.2 82 +1 +1 1027.8 1024.6
10 20.03 ЮЗ 12-14
{14}
н/о н/о +7.2 +4.8 85 +1 +1 1028.0 1024.8
11 20.03 ЮЗ 10-12
{14}
н/о н/о +7.4 +6.5 94 +2 +2 1028.9 1025.7
12 20.03 З 12-13
{14}
н/о н/о +7.5 +7.0 97 +1 +1 1028.9 1025.7
13 20.03 ЮЗ 12-13
{15}
н/о н/о +7.9 +7.0 94 +2 +2 1028.6 1025.4
14 20.03 З 11-13
{15}
н/о н/о +8.0 +7.4 96 +2 +2 1028.9 1025.7
15 20.03 З 11-12
{15}
н/о н/о +8.7 +7.7 93 +3 +3 1029.0 1025.8
16 20.03 З 8-9
{12}
н/о н/о +8.7 +7.5 92 +4 +4 1029.4 1026.2
17 20.03 З 8-9
{11}
н/о н/о +9.1 +7.7 91 +5 +5 1029.8 1026.6
18 20.03 З 9-10
{15}
н/о н/о +8.6 +7.2 91 +4 +4 1030.2 1027.0 +4.8 +9.1
19 20.03 З 9-10
{11}
н/о н/о +7.9 +6.6 91 +3 +3 1030.8 1027.6
20 20.03 З 11-12
{12}
н/о н/о +7.8 +6.4 91 +2 +2 1031.3 1028.1
21 20.03 З 9-10
{12}
н/о н/о +7.6 +6.7 94 +2 +2 1031.1 1027.9
22 20.03 З 7-8
{10}
н/о н/о +7.5 +6.9 96 +3 +3 1031.5 1028.3
23 20.03 З 8-9
{10}
н/о н/о +7.7 +7.1 96 +3 +3 1031.5 1028.3
00 21.03 З 8-9
{12}
н/о н/о +7.8 +7.2 96 +3 +3 1031.5 1028.3
01 21.03 З 9-10
{10}
н/о н/о +8.4 +7.5 94 +3 +3 1031.5 1028.3
02 21.03 ЮЗ 9-10
{10}
н/о н/о +8.6 +7.7 94 +4 +4 1031.0 1027.8
03 21.03 ЮЗ 9-11
{11}
н/о н/о +8.7 +7.6 93 +4 +4 1030.5 1027.3
04 21.03 ЮЗ 10-13
{13}
н/о н/о +8.3 +7.4 94 +3 +3 1030.3 1027.1
05 21.03 ЮЗ 11-12
{14}
н/о н/о +7.8 +7.2 96 +2 +2 1030.3 1027.1
06 21.03 ЮЗ 13-15
{15}
н/о н/о +7.3 +6.9 97 +1 +1 1030.2 1027.0 +7.3 +8.9
07 21.03 ЮЗ 11-13
{15}
н/о н/о +7.2 +7.0 99 +1 +1 1030.8 1027.6
08 21.03 ЮЗ 12-14
{15}
н/о н/о +7.3 +6.9 97 +1 +1 1031.1 1027.9
09 21.03 ЮЗ 13-15
{15}
н/о н/о +7.8 +7.2 96 +2 +2 1031.3 1028.1
10 21.03 ЮЗ 12-13
{16}
н/о н/о +8.7 +7.4 92 +3 +3 1031.3 1028.1
11 21.03 З 12-14
{14}
н/о н/о +9.5 +7.8 89 +4 +4 1031.0 1027.8
12 21.03 ЮЗ 14-17
{19}
н/о н/о +10.1 +7.8 86 +5 +5 1030.6 1027.4
13 21.03 З 12-14
{17}
н/о н/о +10.4 +7.8 84 +6 +6 1030.9 1027.7
14 21.03 З 14-15
{17}
н/о н/о +10.8 +7.8 82 +6 +6 1030.7 1027.5
15 21.03 З 14-16
{17}
н/о н/о +10.3 +7.9 85 +5 +5 1030.6 1027.4
16 21.03 З 12-15
{16}
н/о н/о +9.3 +7.3 87 +4 +4 1030.9 1027.7
19 21.03 З 8-9
{13}
н/о н/о +8.4 +7.8 96 +4 +4 1031.9 1028.7
21 21.03 З 9-9
{13}
н/о н/о +7.7 +7.7 100 +2 +2 1032.0 1028.8
22 21.03 ЮЗ 11-12
{12}
н/о н/о +7.7 +7.6 99 +2 +2 1031.8 1028.6
23 21.03 ЮЗ 9-11
{13}
н/о н/о +7.3 +7.3 100 +2 +2 1032.1 1028.9
00 22.03 З 7-8
{13}
н/о н/о +7.0 +7.0 100 +2 +2 1032.5 1029.2
01 22.03 З 8-9
{9}
н/о н/о +6.9 +6.9 100 +1 +1 1032.6 1029.3
02 22.03 З 6-7
{9}
н/о н/о +6.5 +6.5 100 +2 +2 1032.6 1029.3
03 22.03 СЗ 5-7
{9}
н/о н/о +6.0 +6.0 100 +1 +1 1032.6 1029.3
04 22.03 СЗ 4-5
{8}
н/о н/о +6.1 +6.1 100 +2 +2 1032.7 1029.4
05 22.03 З 2-2
{5}
н/о н/о +5.9 +5.9 100 +3 +3 1033.3 1030.0
06 22.03 ЮЗ 2-3
{9}
н/о н/о +6.0 +6.0 100 +3 +3 1033.3 1030.0 +5.7 +8.7
07 22.03 ЮЗ 4-4
{4}
н/о н/о +6.0 +6.0 100 +2 +2 1033.3 1030.0
08 22.03 ЮЗ 3-4
{4}
н/о н/о +6.0 +6.0 100 +2 +2 1033.2 1029.9
09 22.03 Ю 5-6
{6}
н/о н/о +6.7 +6.7 100 +2 +2 1032.8 1029.5
10 22.03 Ю 7-7
{8}
н/о н/о +7.2 +6.7 97 +2 +2 1032.3 1029.0
11 22.03 Ю 6-7
{8}
н/о н/о +7.3 +6.9 97 +3 +3 1031.8 1028.6
12 22.03 ЮЗ 7-8
{8}
н/о н/о +8.0 +7.1 94 +3 +3 1031.3 1028.1
13 22.03 Ю 5-6
{7}
н/о н/о +8.5 +7.3 92 +5 +5 1030.8 1027.6
14 22.03 Ю 5-6
{7}
н/о н/о +8.9 +7.5 91 +5 +5 1030.2 1027.0
15 22.03 Ю 5-5
{7}
н/о н/о +9.7 +7.7 87 +6 +6 1029.3 1026.1
16 22.03 ЮВ 6-8
{8}
н/о н/о +9.9 +7.8 87 +6 +6 1028.5 1025.3
17 22.03 В 7-8
{9}
н/о н/о +9.5 +7.5 87 +6 +6 1028.0 1024.8
18 22.03 ЮВ 8-8
{9}
н/о н/о +8.8 +7.3 90 +4 +4 1027.4 1024.2 +5.9 +10.1
19 22.03 ЮВ 8-9
{9}
н/о н/о +8.4 +7.1 92 +4 +4 1027.2 1024.0
20 22.03 ЮВ 9-9
{10}
н/о н/о +8.7 +7.5 92 +4 +4 1026.7 1023.5
21 22.03 Ю 9-9
{10}
н/о н/о +8.9 +7.6 92 +4 +4 1026.1 1022.9
22 22.03 Ю 10-11
{11}
н/о н/о +9.4 +8.0 91 +5 +5 1025.2 1022.0
23 22.03 Ю 10-11
{11}
н/о н/о +9.6 +8.1 90 +5 +5 1024.7 1021.5
00 23.03 ЮЗ 10-11
{12}
н/о н/о +9.7 +8.1 90 +5 +5 1024.2 1021.0
01 23.03 З 8-8
{11}
н/о н/о +9.5 +8.3 92 +5 +5 1024.8 1021.6
02 23.03 З 8-8
{10}
н/о н/о +6.9 +6.8 99 +1 +1 1024.8 1021.6
03 23.03 З 7-8
{11}
н/о н/о +6.5 +6.0 97 +1 +1 1024.6 1021.4
04 23.03 З 6-8
{8}
н/о н/о +6.0 +5.4 96 +1 +1 1024.9 1021.7
05 23.03 З 8-9
{9}
н/о н/о +5.5 +5.0 97 -0 -0 1024.8 1021.6
06 23.03 З 9-10
{11}
н/о н/о +5.8 +5.3 97 -0 -0 1025.2 1022.0 +5.5 +9.9
07 23.03 З 8-9
{10}
н/о н/о +6.4 +5.5 94 +1 +1 1025.6 1022.4
08 23.03 З 7-8
{9}
н/о н/о +6.8 +5.9 94 +2 +2 1025.7 1022.5
09 23.03 ЮЗ 9-9
{10}
н/о н/о +7.1 +6.1 93 +2 +2 1025.9 1022.7
10 23.03 З 7-7
{10}
н/о н/о +7.7 +6.1 90 +3 +3 1026.6 1023.4
11 23.03 З 8-9
{9}
н/о н/о +8.8 +5.5 80 +4 +4 1026.9 1023.7
12 23.03 З 8-9
{10}
н/о н/о +9.5 +4.8 72 +5 +5 1027.3 1024.1
13 23.03 З 8-9
{10}
н/о н/о +9.7 +2.5 61 +6 +6 1027.6 1024.4
14 23.03 З 8-9
{10}
н/о н/о +10.1 +2.8 60 +6 +6 1027.8 1024.6
15 23.03 З 10-10
{13}
н/о н/о +9.8 +2.2 59 +6 +6 1027.9 1024.7
16 23.03 З 10-11
{13}
н/о н/о +9.0 +0.8 56 +5 +5 1028.4 1025.2
17 23.03 СЗ 10-11
{12}
н/о н/о +8.3 +1.3 61 +4 +4 1029.0 1025.8
18 23.03 СЗ 10-11
{13}
н/о н/о +7.5 +1.2 64 +2 +2 1029.4 1026.2 +5.8 +10.4
19 23.03 З 8-9
{11}
н/о н/о +6.8 +1.4 68 +2 +2 1029.9 1026.6
20 23.03 З 7-8
{9}
н/о н/о +6.2 +2.5 77 +1 +1 1030.4 1027.1
21 23.03 З 7-7
{11}
н/о н/о +5.5 +3.2 85 0 0 1030.7 1027.4
22 23.03 З 6-7
{8}
н/о н/о +5.1 +3.1 87 0 0 1030.7 1027.4
23 23.03 З 6-6
{7}
н/о н/о +4.9 +3.2 89 -0 -0 1030.5 1027.2
00 24.03 З 6-7
{11}
н/о н/о +4.7 +3.2 90 -1 -1 1030.3 1027.0
01 24.03 З 5-6
{7}
н/о н/о +4.6 +3.1 90 -0 -0 1030.1 1026.8
02 24.03 З 5-6
{6}
н/о н/о +4.4 +3.1 91 -1 -1 1029.7 1026.4
03 24.03 З 6-6
{7}
н/о н/о +4.5 +3.1 91 -1 -1 1029.5 1026.2
04 24.03 З 6-6
{6}
н/о н/о +4.4 +3.2 92 -1 -1 1029.1 1025.8
05 24.03 З 5-6
{6}
н/о н/о +4.3 +3.2 93 -1 -1 1029.0 1025.7
06 24.03 З 5-6
{7}
н/о н/о +4.3 +3.1 92 -1 -1 1028.6 1025.3 +4.2 +7.5
07 24.03 З 5-5
{6}
н/о н/о +4.5 +3.1 91 -0 -0 1028.6 1025.3
08 24.03 З 3-4
{6}
н/о н/о +4.7 +3.0 89 +1 +1 1027.9 1024.6
09 24.03 ЮЗ 4-5
{6}
н/о н/о +4.9 +3.1 88 +1 +1 1027.6 1024.3
10 24.03 ЮЗ 5-5
{6}
н/о н/о +5.3 +3.2 86 +1 +1 1027.0 1023.7
11 24.03 З 5-6
{6}
н/о н/о +6.1 +2.6 78 +2 +2 1026.4 1023.2
12 24.03 З 7-7
{7}
н/о н/о +7.0 +1.2 67 +2 +2 1025.4 1022.2
13 24.03 З 9-11
{11}
н/о н/о +7.8 +0.1 58 +3 +3 1024.3 1021.1
14 24.03 З 10-11
{12}
н/о н/о +7.8 +0.1 58 +3 +3 1023.3 1020.1
15 24.03 З 10-11
{12}
н/о н/о +7.5 0.0 59 +2 +2 1022.6 1019.4
16 24.03 З 11-12
{12}
н/о н/о +7.5 -1.3 54 +2 +2 1021.8 1018.6

 

Местоположение метеостанции Киль маяк (Германия): широта 54.50 долгота 10.28 высота над уровнем моря 21 м.

В архиве по умолчанию представлена погода в Киль маяке за последнюю неделю. Архивные данные за месяц целиком и за предыдущие месяцы, начиная с января 2011 года, Вы можете получить, выбрав интересующий диапазон дат из раскрывающегося списка и нажав кнопку "Ввод!".


*Определитесь, кто Вы:
робот инопланетянин человек

Внимание! Время в таблицах - всемирное. Для получения местного времени необходимо прибавить поправку, которая равна 1 ч.

Смотрите также архив погоды в соседних городах и на ближайших метеорологических станциях:

Погода в Киле (Германия) (16 км)
Погода в Ольпенице (Германия) (25 км)
Погода в Дёрнике (Германия) (37 км)
Погода на Мысе Kegnaes (Дания) (43 км)
Погода в Шлезвиге (Германия) (47 км)
Погода в Шлезвиг аэропорту (Германия) (49 км)
Погода в Вестермаркельсдорфе (Германия) (51 км)
Погода в Хоне (Германия) (53 км)
Погода в Ланго (Дания) (58 км)
Погода в Тосинге (Дания) (61 км)

Пояснения к столбцам:

Ветер - указаны скорость ветра в м/с - средняя за 10 мин, порывы в срок и между сроками (в фигурных скобках) и направление, откуда дует ветер: С - северный, СВ - северо-восточный, В - восточный, ЮВ - юго-восточный, Ю - южный, ЮЗ - юго-западный, З - западный, СЗ - северо-западный.
Видимость - горизонтальная дальность видимости в метрах или километрах. При видимости от 1 до 10 км при отсутствии осадков обычно наблюдается дымка, при ухудшении видимости до 1 км и менее - туман. В сухую погоду видимость может ухудшаться дымом, пылью или мглою.
Явления - указаны атмосферные явления, наблюдавшиеся в срок или в последний час перед сроком; фигурными скобками обозначены явления, наблюдавшиеся между сроками (за 1-3 часа до срока); квадратными скобками обозначены град или гололедные отложения с указанием их диаметра в мм.
Облачность - указаны через наклонную черту общая и нижняя облачность в баллах и высота нижней границы облаков в метрах; квадратными скобками обозначены формы облаков: Ci - перистые, Cs - перисто-слоистые, Cc - перисто-кучевые, Ac - высококучевые, As - высокослоистые, Sc - слоисто-кучевые, Ns - слоисто-дождевые, Cu - кучевые, Cb - кучево-дождевые. Подробнее классификацию облаков см. в Атласе облаков (PDF).
T - Температура воздуха - температура, измеренная на высоте 2 м над землей.
Td - Температура точки росы - температура, при понижении до которой содержащийся в воздухе водяной пар достигнет насыщения.
f - Относительная влажность воздуха - влажноcть воздуха, измеренная на высоте 2 м над землей.
Te - Эффективная температура - температура, которую ощущает одетый по сезону человек в тени. Характеристика душности погоды. При расчете учитывается влияние влажности воздуха и скорости ветра на теплоощущения человека.
Tes - Эффективная температура на солнце - температура, которую ощущает человек, с поправкой на солнечный нагрев. Характеристика знойности погоды. Зависит от высоты солнца над горизонтом, облачности и скорости ветра. Ночью, в пасмурную погоду, а также при ветре 12 м/с и более поправка равна нулю.
P - Атмосферное давление - приведенное к уровню моря атмосферное давление.
Po - Атмосферное давление - измеренное на уровне метеостанции атмосферное давление.
Tmin - Минимальная температура - минимум температуры воздуха на высоте 2 м над землей.
Tmax - Максимальная температура - максимум температуры воздуха на высоте 2 м над землей.
R - Количество осадков - Количество выпавших осадков за период времени, мм. При наведении курсора мыши на число - период времени, за который выпало указанное количество осадков.
R24 - Количество осадков - Количество выпавших осадков за 24 часа, мм.
S - Снежный покров - Высота снежного покрова, см. При наведении курсора мыши на число - состояние снежного покрова и степень покрытия местности в баллах.